Showing default

COSMOS 2518, 42719

Orbit data source: Space-Track

COSMOS 2518, 42719 is a payload satellite owned by VVKO VKS (CIS) that was launched on Thu, 25 May 2017 UTC via a SOYUZ-2-1B launch vehicle from the Plesetsk Missile And Space Complex (PKMTR). Payloads include a variety of satellites, spacecraft, and rockets equipped with specific instruments for various scientific and technological missions. These include communications satellites like Starlink; space stations such as the ISS; scientific satellites like the Hubble; Earth observation satellites from companies like Planet Labs, Umbra, and HawkEye 360; GPS; miniature CubeSats for education and research; and military/defense satellites.

Loading next visibility...
COSMOS 2518 details
Identifier
42719, 2017-027A
Orbit
Molniya
Last TLE update1 day ago
Origin
Flag of CISVVKO VKS (CIS)
ManufacturerRKKE/KOMET
MissionOperational Defense Early Warn
Bus & Motor14F142, Unknown motor
Mass2,550 kg wet, ~2,000 kg dry
Launch date (UTC)
2017-05-25 (8 years ago)
Launch vehicle
SOYUZ-2-1B
Launch site
Plesetsk Missile And Space Complex (PKMTR)
Object type
Payload
Rocket body
Debris
Shape & HBRBox + 2 Pan, 10 m
Radar Cross Section14.304 m², Large (>1 m²)

Expand to show TLE details & history

TLE from 1 day ago
0 COSMOS 2518
1 42719U 17027A   24360.84792106 -.00001573  00000-0 -12202-2 0  9999
2 42719  63.2295 318.8775 7219043 271.4402  14.7447  2.00998460 55585
Epoch: 2024-12-25T20:21Z
Definitive object data (Epoch: 2024-12-25T20:21:00.379Z)
Latitude0.00044°
Longitude-81.28061°
Altitude6,086.661 km
Speed6.995 km/s
True Right ascension21h 15m 13s
True Declination0° 00' 02"
Sunlit
Object was in daylight at TLE epoch
Visualization TLE readout
Latitude53.87387°
Longitude-37.77448°
Altitude29,350.986 km
Speed2.7 km/s
Apparent Right ascension00h 46m 07s
Apparent Declination55° 08' 20"
Sunlit
Object is in daylight
Visualization observer readout
Local Sidereal Time21:51:51
Azimuth47.294° ENE
Elevation57.581°
Doppler factor1
Orbital elements
Apogee altitude39,288.592 km
Perigee altitude997.256 km
Semi-major axis26,521.061 km
Eccentricity0.7219043
Inclination63.2295°
RAAN318.8775°
Arg. of periapsis271.4402°
True anomaly88.70847°
Mean anomaly14.7447°
Eccentric anomaly42.90154°
Mean motion0.50252 °/min
BSTAR-0.0012202
Orbital period716.38 mins
Loading maneuver chart data...
Loading historical data...
Loading historical data...
Loading historical data...
Loading historical data...
Loading historical data...
Loading historical data...
Loading historical data...
Other satellites on launch #27 in the year 2017 (2017-05-25 UTC)

COSMOS 2518 Visibility forecast

Observer location: undefined°, undefined

Span
Click to sort rows by Start time (UTC) header in descending order
Start Az.
Max El. time (UTC)
Max El. Az.
Max El.
End time (UTC)
End Az.
519 mins2024-12-26 22:28:41.428Z47.322° ENE2024-12-27 05:30:41.428Z63.39° ENE40.79°2024-12-27 07:07:41.428Z126.089° SE
142 mins2024-12-27 20:06:41.428Z143.886° SSE2024-12-27 21:53:41.428Z56.245° ENE40.137°2024-12-27 22:28:41.428Z45.787° ENE
|